When you browse on this site, cookies collect data to enhance your experience and personalize the content and advertising you see.
Visit our Privacy Policy to learn more. By continuing to use the site, you agree to this use of cookies and data.
  • en Suisse
  • Liste des pays
  • À 7 jours
  • Température de l'eau
  • Carte météo
  • Widgets météo
  • user-avatar
    Se connecter

    Météo par heure à Yangjiang

    Ce jour, 6 Juin, Samedi

    Heure Température Précipitation Vent Pression Humidité
    00:00 +29°C° 0.3 mm 3 m/s 752 mmHg 91%
    01:00 +29°C° 0 mm 2 m/s 752 mmHg 93%
    02:00 +28°C° 0.8 mm 2 m/s 752 mmHg 93%
    03:00 +28°C° 0.8 mm 2 m/s 752 mmHg 93%
    04:00 +28°C° 0.8 mm 2 m/s 752 mmHg 92%
    05:00 +29°C° 0.2 mm 2 m/s 752 mmHg 90%
    06:00 +30°C° 0.2 mm 1 m/s 752 mmHg 87%
    07:00 +31°C° 0 mm 1 m/s 753 mmHg 81%
    08:00 +32°C° 0.1 mm 2 m/s 753 mmHg 77%
    09:00 +34°C° 0.1 mm 3 m/s 753 mmHg 73%
    10:00 +35°C° 0.1 mm 4 m/s 754 mmHg 69%
    11:00 +35°C° 0.6 mm 4 m/s 753 mmHg 69%
    12:00 +35°C° 0.6 mm 5 m/s 753 mmHg 69%
    13:00 +35°C° 0.6 mm 5 m/s 752 mmHg 69%
    14:00 +34°C° 0.1 mm 5 m/s 752 mmHg 72%
    15:00 +34°C° 0.1 mm 5 m/s 751 mmHg 74%
    16:00 +33°C° 0.1 mm 5 m/s 751 mmHg 77%
    17:00 +33°C° 0.2 mm 5 m/s 751 mmHg 81%
    18:00 +32°C° 0.2 mm 4 m/s 751 mmHg 85%
    19:00 +30°C° 0.2 mm 3 m/s 752 mmHg 88%
    20:00 +30°C° 0.6 mm 3 m/s 752 mmHg 89%
    21:00 +30°C° 0.6 mm 3 m/s 753 mmHg 89%
    22:00 +29°C° 0.6 mm 3 m/s 753 mmHg 89%
    23:00 +30°C° 1.2 mm 4 m/s 753 mmHg 88%

    Demain, 7 Juin, Dimanche

    Heure Température Précipitation Vent Pression Humidité
    00:00 +30°C° 1.2 mm 4 m/s 752 mmHg 88%
    01:00 +30°C° 1.2 mm 4 m/s 752 mmHg 87%
    02:00 +30°C° 2 mm 4 m/s 752 mmHg 87%
    03:00 +29°C° 2 mm 4 m/s 752 mmHg 87%
    04:00 +29°C° 2 mm 3 m/s 752 mmHg 87%
    05:00 +30°C° 1.4 mm 4 m/s 752 mmHg 86%
    06:00 +30°C° 1.4 mm 4 m/s 752 mmHg 85%
    07:00 +30°C° 1.4 mm 4 m/s 752 mmHg 84%
    08:00 +32°C° 1.2 mm 5 m/s 752 mmHg 82%
    09:00 +32°C° 1.2 mm 5 m/s 752 mmHg 80%
    10:00 +33°C° 1.2 mm 5 m/s 752 mmHg 78%
    11:00 +33°C° 1 mm 5 m/s 752 mmHg 77%
    12:00 +33°C° 1 mm 6 m/s 752 mmHg 76%
    13:00 +34°C° 1 mm 6 m/s 751 mmHg 74%
    14:00 +33°C° 0.4 mm 5 m/s 751 mmHg 77%
    15:00 +33°C° 0.4 mm 5 m/s 751 mmHg 80%
    16:00 +32°C° 0.4 mm 4 m/s 750 mmHg 83%
    17:00 +32°C° 0.6 mm 4 m/s 750 mmHg 85%
    18:00 +30°C° 0.6 mm 3 m/s 751 mmHg 86%
    19:00 +29°C° 0.6 mm 2 m/s 751 mmHg 88%
    20:00 +29°C° 0.5 mm 3 m/s 751 mmHg 88%
    21:00 +30°C° 0.5 mm 3 m/s 751 mmHg 89%
    22:00 +30°C° 0.5 mm 3 m/s 752 mmHg 89%
    23:00 +30°C° 0.7 mm 3 m/s 751 mmHg 89%

    Après-demain, 8 Juin, Lundi

    Heure Température Précipitation Vent Pression Humidité
    00:00 +29°C° 0.7 mm 4 m/s 751 mmHg 89%
    01:00 +29°C° 0.7 mm 4 m/s 751 mmHg 89%
    02:00 +29°C° 1.8 mm 4 m/s 751 mmHg 89%
    03:00 +29°C° 1.8 mm 4 m/s 751 mmHg 88%
    04:00 +29°C° 1.8 mm 5 m/s 751 mmHg 88%
    05:00 +29°C° 1.3 mm 5 m/s 751 mmHg 88%
    06:00 +29°C° 1.3 mm 5 m/s 752 mmHg 87%
    07:00 +30°C° 1.3 mm 5 m/s 752 mmHg 87%
    08:00 +30°C° 1.3 mm 5 m/s 752 mmHg 86%
    09:00 +30°C° 1.3 mm 5 m/s 753 mmHg 86%
    10:00 +30°C° 1.3 mm 5 m/s 753 mmHg 86%
    11:00 +30°C° 1.3 mm 4 m/s 753 mmHg 86%
    12:00 +30°C° 1.3 mm 3 m/s 753 mmHg 85%
    13:00 +30°C° 1.3 mm 3 m/s 752 mmHg 85%
    14:00 +30°C° 0.8 mm 2 m/s 752 mmHg 86%
    15:00 +30°C° 0.8 mm 2 m/s 752 mmHg 87%
    16:00 +29°C° 0.8 mm 1 m/s 752 mmHg 88%
    17:00 +29°C° 0.3 mm 2 m/s 752 mmHg 89%
    18:00 +29°C° 0.3 mm 2 m/s 752 mmHg 89%
    19:00 +29°C° 0.3 mm 3 m/s 752 mmHg 90%
    20:00 +29°C° 0.3 mm 3 m/s 753 mmHg 90%
    21:00 +29°C° 0.3 mm 3 m/s 753 mmHg 91%
    22:00 +29°C° 0.3 mm 3 m/s 753 mmHg 92%
    23:00 +29°C° 1.9 mm 3 m/s 753 mmHg 92%

    9 Juin, Mardi

    Heure Température Précipitation Vent Pression Humidité
    00:00 +28°C° 1.9 mm 3 m/s 753 mmHg 92%
    01:00 +28°C° 1.9 mm 4 m/s 753 mmHg 92%
    02:00 +28°C° 2.3 mm 4 m/s 753 mmHg 91%
    03:00 +28°C° 2.3 mm 5 m/s 752 mmHg 91%
    04:00 +28°C° 2.3 mm 5 m/s 752 mmHg 90%
    05:00 +28°C° 2.2 mm 5 m/s 753 mmHg 91%
    06:00 +28°C° 2.2 mm 5 m/s 753 mmHg 91%
    07:00 +28°C° 2.2 mm 5 m/s 754 mmHg 92%
    08:00 +28°C° 0.3 mm 4 m/s 754 mmHg 91%
    09:00 +28°C° 0.3 mm 4 m/s 754 mmHg 90%
    10:00 +29°C° 0.3 mm 3 m/s 755 mmHg 89%
    11:00 +29°C° 0.1 mm 3 m/s 754 mmHg 89%
    12:00 +29°C° 0.1 mm 2 m/s 754 mmHg 88%
    13:00 +29°C° 0.1 mm 2 m/s 754 mmHg 87%
    14:00 +30°C° 0.1 mm 2 m/s 753 mmHg 86%
    15:00 +30°C° 0.1 mm 2 m/s 753 mmHg 85%
    16:00 +30°C° 0.1 mm 2 m/s 753 mmHg 85%
    17:00 +30°C° 0.3 mm 2 m/s 753 mmHg 87%
    18:00 +29°C° 0.3 mm 2 m/s 753 mmHg 89%
    19:00 +28°C° 0.3 mm 2 m/s 754 mmHg 92%
    20:00 +28°C° 0.3 mm 2 m/s 754 mmHg 91%
    21:00 +28°C° 0.3 mm 2 m/s 754 mmHg 91%
    22:00 +28°C° 0.3 mm 2 m/s 755 mmHg 91%
    23:00 +28°C° 0.6 mm 2 m/s 754 mmHg 91%

    10 Juin, Mercredi

    Heure Température Précipitation Vent Pression Humidité
    00:00 +28°C° 0.6 mm 2 m/s 754 mmHg 91%
    01:00 +28°C° 0.6 mm 2 m/s 754 mmHg 91%
    02:00 +28°C° 0.3 mm 2 m/s 754 mmHg 91%
    03:00 +28°C° 0.3 mm 2 m/s 754 mmHg 90%
    04:00 +28°C° 0.3 mm 2 m/s 753 mmHg 90%
    05:00 +29°C° 0.5 mm 2 m/s 754 mmHg 88%
    06:00 +29°C° 0.5 mm 2 m/s 754 mmHg 86%
    07:00 +30°C° 0.5 mm 3 m/s 755 mmHg 84%
    08:00 +31°C° 2 mm 3 m/s 755 mmHg 82%
    09:00 +32°C° 2 mm 4 m/s 755 mmHg 80%
    10:00 +33°C° 2 mm 5 m/s 755 mmHg 79%
    11:00 +33°C° 1.9 mm 5 m/s 754 mmHg 79%
    12:00 +33°C° 1.9 mm 5 m/s 754 mmHg 79%
    13:00 +33°C° 1.9 mm 5 m/s 754 mmHg 78%
    14:00 +33°C° 0.6 mm 5 m/s 753 mmHg 80%
    15:00 +32°C° 0.6 mm 4 m/s 753 mmHg 81%
    16:00 +32°C° 0.6 mm 4 m/s 753 mmHg 82%
    17:00 +30°C° 0.4 mm 3 m/s 753 mmHg 84%
    18:00 +30°C° 0.4 mm 3 m/s 753 mmHg 87%
    19:00 +29°C° 0.4 mm 3 m/s 753 mmHg 89%
    20:00 +29°C° 0.1 mm 2 m/s 754 mmHg 89%
    21:00 +29°C° 0.1 mm 2 m/s 754 mmHg 90%
    22:00 +29°C° 0.1 mm 2 m/s 755 mmHg 91%
    23:00 +29°C° 0.1 mm 2 m/s 754 mmHg 91%

    11 Juin, Jeudi

    Heure Température Précipitation Vent Pression Humidité
    00:00 +29°C° 0.1 mm 3 m/s 754 mmHg 92%
    01:00 +29°C° 0.1 mm 3 m/s 753 mmHg 93%
    02:00 +28°C° 0.7 mm 3 m/s 753 mmHg 93%
    03:00 +28°C° 0.7 mm 3 m/s 753 mmHg 93%
    04:00 +28°C° 0.7 mm 3 m/s 753 mmHg 92%
    05:00 +29°C° 1.3 mm 3 m/s 753 mmHg 90%
    06:00 +30°C° 1.3 mm 3 m/s 754 mmHg 88%
    07:00 +30°C° 1.3 mm 4 m/s 754 mmHg 86%
    08:00 +32°C° 1.4 mm 4 m/s 754 mmHg 85%
    09:00 +32°C° 1.4 mm 4 m/s 754 mmHg 84%
    10:00 +32°C° 1.4 mm 4 m/s 754 mmHg 83%
    11:00 +33°C° 0.3 mm 5 m/s 754 mmHg 81%
    12:00 +33°C° 0.3 mm 5 m/s 753 mmHg 80%
    13:00 +33°C° 0.3 mm 5 m/s 752 mmHg 79%
    14:00 +33°C° 0 mm 5 m/s 752 mmHg 80%
    15:00 +33°C° 0 mm 5 m/s 752 mmHg 81%
    16:00 +33°C° 0 mm 5 m/s 751 mmHg 81%
    17:00 +32°C° 0 mm 5 m/s 751 mmHg 85%
    18:00 +30°C° 0 mm 4 m/s 752 mmHg 88%
    19:00 +29°C° 0 mm 3 m/s 752 mmHg 92%
    20:00 +29°C° 0.1 mm 3 m/s 752 mmHg 92%
    21:00 +29°C° 0.1 mm 3 m/s 753 mmHg 93%
    22:00 +29°C° 0.1 mm 3 m/s 753 mmHg 93%
    23:00 +29°C° 0 mm 3 m/s 753 mmHg 93%
    Voir plus